www.pogodaiklimat.ru

Погода и климат >> Архив погоды >> Беларусь >> Пружаны


ПОГОДА в Пружанах

  • Прогноз погоды в Пружанах
  • Монитор погоды в Пружанах
  • Климат города

АРХИВ ПОГОДЫ в Пружанах

Время (UTC), дата Ветер
(напр.,м/с)
 
Видим.   Явления Облачность Т
(С)
Тd
(С)
f
(%)
Тe
(С)
Тes
(С)
Комфортность P
(гПа)
Po
(гПа)
Тmin
(С)
Tmax
(С)
R
(мм)
R24
(мм)
S
(см)
09 14.11 З 3 10 км ливневой дождь 10 баллов +3.8 +2.3 90 -0 -0 1019.0 998.2
12 14.11 З 4 10 км 10 баллов +4.1 +1.5 83 -0 -0 1020.0 999.2
15 14.11 СЗ 3 10 км 10 баллов +3.6 +1.5 86 -0 -0 1022.0 1001.1
18 14.11 ЮЗ 2 10 км 10 баллов +2.4 -0.9 79 -1 -1 1023.0 1002.0 +4.8
06 15.11 ЮЗ 4 10 км 10 баллов +1.9 +0.3 89 -3 -3 1023.0 1002.0 +0.2
09 15.11 ЮЗ 4 10 км 10 баллов +3.9 +1.9 87 -1 -1 1024.0 1003.1
12 15.11 ЮЗ 4 10 км 10 баллов +4.3 +2.8 90 -0 -0 1024.0 1003.2
15 15.11 ЮЗ 3 10 км 10 баллов +4.5 +2.5 87 +1 +1 1024.0 1003.2
18 15.11 ЮЗ 2 10 км 10 баллов +4.6 +2.9 89 +2 +2 1025.0 1004.2 +4.9
06 16.11 ЮЗ 2 5000 м дымка 10 баллов +3.6 +2.9 95 +1 +1 1027.0 1006.0 +3.4
09 16.11 ЮЗ 3 10 км 10 баллов +5.3 +3.3 87 +2 +2 1028.0 1007.2
12 16.11 ЮЗ 2 10 км 10 баллов +7.2 +2.9 74 +5 +5 1027.0 1006.3
15 16.11 штиль 0 10 км 10 баллов +4.2 +3.2 93 +3 +3 1027.0 1006.1
18 16.11 Ю 1 3000 м дымка 10 баллов +2.1 +1.8 98 0 0 1027.0 1005.9 +7.3
06 17.11 Ю 3 10 км 10 баллов +2.7 -0.1 82 -1 -1 1023.0 1002.1 -0.4
09 17.11 ЮЗ 4 10 км 10 баллов +3.8 +0.7 80 -1 -1 1023.0 1002.1
12 17.11 ЮЗ 3 10 км 10 баллов +5.2 +0.4 71 +2 +2 1021.0 1000.3
15 17.11 ЮЗ 2 10 км 10 баллов +3.9 +1.1 82 +1 +1 1022.0 1001.2
18 17.11 ЮЗ 3 10 км 10 баллов +3.3 +0.9 84 -1 -1 1021.0 1000.1 +5.7
06 18.11 штиль 0 4000 м дымка 10 баллов +1.7 +1.4 98 0 0 1020.0 999.0 +1.7
09 18.11 ЮЗ 2 800 м туман н/о +0.9 +0.9 100 -3 -1 1019.0 998.0
12 18.11 ЮЗ 3 10 км 10 баллов +1.9 +0.7 92 -3 -3 1017.0 996.1
15 18.11 ЮЗ 3 10 км 10 баллов +1.9 -0.4 85 -2 -2 1015.0 994.2
18 18.11 Ю 3 10 км ясно +0.3 -0.6 94 -4 -4 1014.0 993.1 +2.6
06 19.11 ЮЗ 4 8000 м дождь 10 баллов +1.8 +0.5 91 -3 -3 1005.0 984.4 +0.2
09 19.11 ЮЗ 5 10 км 10 баллов +3.2 -0.3 78 -2 -2 1006.0 985.4
12 19.11 ЮЗ 4 10 км 10 баллов +4.1 +1.0 80 -0 -0 1005.0 984.5
15 19.11 ЮЗ 4 8000 м ливневой дождь 10 баллов +3.2 +0.8 84 -1 -1 1005.0 984.5
18 19.11 ЮЗ 4 8000 м ливневой дождь 10 баллов +3.0 +0.9 86 -2 -2 1005.0 984.4 +4.1 0.1
06 20.11 Ю 3 10 км 10 баллов +1.3 +0.4 94 -3 -3 1005.0 984.3 +1.3
09 20.11 ЮЗ 4 10 км 10 баллов +2.2 -0.1 85 -3 -3 1006.0 985.4
12 20.11 ЮЗ 3 10 км ливневой дождь 10 баллов +2.7 +0.6 86 -1 -1 1006.0 985.4
15 20.11 Ю 2 10 км ливневой дождь 10 баллов +1.9 +1.0 94 -2 -2 1007.0 986.3
18 20.11 З 4 10 км 10 баллов +1.1 +0.2 94 -4 -4 1008.0 987.2 +3.2 1

 

Местоположение метеостанции Пружаны (Брестская область, Беларусь): широта 52.55 долгота 24.49 высота над уровнем моря 167 м.

В архиве по умолчанию представлена погода в Пружанах за последнюю неделю. Архивные данные за месяц целиком и за предыдущие месяцы, начиная с января 2011 года, Вы можете получить, выбрав интересующий диапазон дат из раскрывающегося списка и нажав кнопку "Ввод!".

Внимание! Время в таблицах - всемирное. Для получения местного времени необходимо прибавить поправку, которая в Пружанах равна 3 ч.

Смотрите также архив погоды в соседних городах и на ближайших метеорологических станциях:

Погода в Ивацевичах (Брестская область, Беларусь) (61 км)
Погода в Волковыске (Гродненская область, Беларусь) (69 км)
Погода в Бресте (Брестская область, Беларусь) (72 км)
Погода в Высоком (Брестская область, Беларусь) (77 км)
Погода в Terespol (Польша) (80 км)
Погода в Bialystok (Польша) (108 км)
Погода в Любешове (Волынская область, Украина) (111 км)
Погода в Пинске (Брестская область, Беларусь) (117 км)
Погода в Барановичах (Брестская область, Беларусь) (119 км)
Погода в Гродно (Гродненская область, Беларусь) (121 км)

Пояснения к столбцам:

Ветер - указаны скорость ветра в м/с - средняя за 10 мин, порывы в срок и между сроками (в фигурных скобках) и направление, откуда дует ветер: С - северный, СВ - северо-восточный, В - восточный, ЮВ - юго-восточный, Ю - южный, ЮЗ - юго-западный, З - западный, СЗ - северо-западный.
Видимость - горизонтальная дальность видимости в метрах или километрах. При видимости от 1 до 10 км при отсутствии осадков обычно наблюдается дымка, при ухудшении видимости до 1 км и менее - туман. В сухую погоду видимость может ухудшаться дымом, пылью или мглою.
Явления - указаны атмосферные явления, наблюдавшиеся в срок или в последний час перед сроком; фигурными скобками обозначены явления, наблюдавшиеся между сроками (за 1-3 часа до срока); квадратными скобками обозначены град или гололедные отложения с указанием их диаметра в мм.
Облачность - указаны через наклонную черту общая и нижняя облачность в баллах и высота нижней границы облаков в метрах; квадратными скобками обозначены формы облаков: Ci - перистые, Cs - перисто-слоистые, Cc - перисто-кучевые, Ac - высококучевые, As - высокослоистые, Sc - слоисто-кучевые, Ns - слоисто-дождевые, Cu - кучевые, Cb - кучево-дождевые. Подробнее классификацию облаков см. в Атласе облаков (PDF).
T - Температура воздуха - температура, измеренная на высоте 2 м над землей.
Td - Температура точки росы - температура, при понижении до которой содержащийся в воздухе водяной пар достигнет насыщения.
f - Относительная влажность воздуха - влажноcть воздуха, измеренная на высоте 2 м над землей.
Te - Эффективная температура - температура, которую ощущает одетый по сезону человек в тени. Характеристика душности погоды. При расчете учитывается влияние влажности воздуха и скорости ветра на теплоощущения человека.
Tes - Эффективная температура на солнце - температура, которую ощущает человек, с поправкой на солнечный нагрев. Характеристика знойности погоды. Зависит от высоты солнца над горизонтом, облачности и скорости ветра. Ночью, в пасмурную погоду, а также при ветре 12 м/с и более поправка равна нулю.
P - Атмосферное давление - приведенное к уровню моря атмосферное давление.
Po - Атмосферное давление - измеренное на уровне метеостанции атмосферное давление.
Tmin - Минимальная температура - минимум температуры воздуха на высоте 2 м над землей.
Tmax - Максимальная температура - максимум температуры воздуха на высоте 2 м над землей.
R - Количество осадков - Количество выпавших осадков за период времени, мм. При наведении курсора мыши на число - период времени, за который выпало указанное количество осадков.
R24 - Количество осадков - Количество выпавших осадков за 24 часа, мм.
S - Снежный покров - Высота снежного покрова, см. При наведении курсора мыши на число - состояние снежного покрова и степень покрытия местности в баллах.